Lawton, OK

2:57 AM CDT on September 26, 2017 (GMT -0500)
Lawton-Fort Sill Regional

Weather History for KLAW - March, 2014

Change the Weather History Date:

Saturday, March 1, 2014

  Actual Average Record
Temperature  
Mean Temperature 38 °F -  
Max Temperature 48 °F 62 °F 93 °F (2006)
Min Temperature 24 °F 36 °F 12 °F (1962)
Degree Days  
Heating Degree Days 28    
Moisture  
Dew Point 40 °F    
Average Humidity 92    
Maximum Humidity 100    
Minimum Humidity 83    
Precipitation  
Precipitation 0.00 in - - ()
Sea Level Pressure  
Sea Level Pressure 29.98 in    
Wind  
Wind Speed 12 mph (NNE)    
Max Wind Speed 31 mph    
Max Gust Speed 40 mph    
Visibility 4 miles    
Events Rain    
Averages and records for this station are not official NWS values.
T = Trace of Precipitation, MM = Missing Value Source: NWS Daily Summary

Daily Weather History Graph

Daily Weather History Graph

Search for Another Location

Airport or City:

Trip Planner

Search our weather history database for the weather conditions in past years. The results will help you decide how hot, cold, wet, or windy it might be!

Date:

Astronomy

Mar. 01, 2014 Rise Set
Actual Time 7:02 AM CST 6:29 PM CST
Civil Twilight 6:37 AM CST 6:55 PM CST
Nautical Twilight 6:08 AM CST 7:24 PM CST
Astronomical Twilight 5:39 AM CST 7:53 PM CST
Moon 6:59 AM CST (3/1) 7:14 PM CST (3/1)
Length of Visible Light 12h 17m
Length of Day
11h 27m
New Moon, 0% of the Moon is Illuminated
Mar 1
New Moon
Mar 8
First Quarter
Mar 16
Full
Mar 23
Last Quarter
Mar 30
New

Hourly Weather History & Observations

Time (CST) Temp. Windchill Dew Point Humidity Pressure Visibility Wind Dir Wind Speed Gust Speed Precip Events Conditions
12:53 AM 46.0 °F 41.9 °F 41.0 °F 83% 29.88 in 9.0 mi NE 8.1 mph - N/A   Clear
1:53 AM 43.0 °F 38.8 °F 39.9 °F 89% 29.89 in 7.0 mi ENE 6.9 mph - N/A   Scattered Clouds
2:03 AM 44.6 °F 40.7 °F 41.0 °F 87% 29.90 in 7.0 mi ENE 6.9 mph - N/A   Mostly Cloudy
2:53 AM 46.0 °F 41.4 °F 43.0 °F 89% 29.88 in 4.0 mi ENE 9.2 mph - N/A   Overcast
3:53 AM 46.0 °F 41.4 °F 45.0 °F 96% 29.89 in 2.5 mi NE 9.2 mph - N/A   Overcast
4:19 AM 46.4 °F 41.9 °F 44.6 °F 93% 29.91 in 1.8 mi NE 9.2 mph - N/A   Overcast
4:53 AM 46.0 °F 41.0 °F 45.0 °F 96% 29.93 in 1.8 mi NE 10.4 mph - N/A   Overcast
5:06 AM 46.4 °F 41.1 °F 44.6 °F 93% 29.94 in 2.0 mi NNE 11.5 mph - N/A   Overcast
5:53 AM 46.0 °F 41.4 °F 45.0 °F 96% 29.94 in 2.0 mi NE 9.2 mph - N/A   Overcast
6:39 AM 46.4 °F 41.1 °F 44.6 °F 93% 29.96 in 3.0 mi ENE 11.5 mph - N/A   Overcast
6:53 AM 46.0 °F 41.0 °F 45.0 °F 96% 29.96 in 4.0 mi ENE 10.4 mph - N/A   Overcast
7:06 AM 46.4 °F 41.5 °F 44.6 °F 93% 29.97 in 2.0 mi NNE 10.4 mph - N/A   Overcast
7:18 AM 44.6 °F 38.8 °F 42.8 °F 93% 29.97 in 1.5 mi NNE 11.5 mph - N/A   Overcast
7:53 AM 44.1 °F 36.5 °F 43.0 °F 96% 29.96 in 1.5 mi NE 17.3 mph - N/A   Overcast
8:53 AM 43.0 °F 37.2 °F 43.0 °F 100% 30.01 in 0.8 mi NNE 10.4 mph - N/A   Overcast
9:25 AM 44.6 °F 38.8 °F 42.8 °F 93% 30.01 in 1.0 mi NNE 11.5 mph - N/A   Overcast
9:53 AM 45.0 °F 39.3 °F 44.1 °F 97% 30.01 in 1.5 mi NE 11.5 mph - N/A   Overcast
10:14 AM 46.4 °F 41.1 °F 44.6 °F 93% 30.00 in 2.0 mi NNE 11.5 mph - N/A   Overcast
10:53 AM 46.0 °F 40.6 °F 45.0 °F 96% 30.00 in 2.0 mi NE 11.5 mph - N/A   Overcast
11:12 AM 46.4 °F 41.1 °F 44.6 °F 93% 30.00 in 3.0 mi NNE 11.5 mph - N/A   Overcast
11:21 AM 46.4 °F 41.1 °F 44.6 °F 93% 30.00 in 3.0 mi NE 11.5 mph - N/A   Overcast
11:53 AM 48.0 °F - 45.0 °F 89% 30.01 in 4.0 mi NNE 11.5 mph - N/A   Overcast
12:53 PM 46.9 °F - 45.0 °F 93% 29.99 in 3.0 mi NNE 11.5 mph - N/A   Overcast
1:53 PM 48.0 °F - 44.1 °F 86% 29.96 in 7.0 mi North 15.0 mph - N/A   Overcast
2:53 PM 45.0 °F 37.9 °F 41.0 °F 86% 29.94 in 8.0 mi North 16.1 mph - N/A   Overcast
3:53 PM 44.1 °F 37.1 °F 39.9 °F 85% 29.96 in 6.0 mi North 15.0 mph - N/A   Overcast
4:53 PM 42.1 °F 34.9 °F 39.0 °F 89% 29.96 in 3.0 mi NNE 13.8 mph 23.0 mph N/A   Overcast
5:53 PM 39.9 °F 29.7 °F 37.0 °F 89% 29.98 in 3.0 mi North 23.0 mph 28.8 mph N/A   Overcast
6:53 PM 37.0 °F 25.9 °F 35.1 °F 93% 29.99 in 4.0 mi North 23.0 mph 28.8 mph N/A   Overcast
7:53 PM 35.1 °F 22.7 °F 32.0 °F 89% 30.01 in 6.0 mi North 25.3 mph 34.5 mph N/A   Overcast
8:53 PM 33.1 °F 20.3 °F 30.0 °F 89% 30.08 in 8.0 mi North 24.2 mph 38.0 mph N/A   Overcast
9:53 PM 30.9 °F 17.2 °F 28.0 °F 89% 30.09 in 7.0 mi North 25.3 mph 34.5 mph N/A   Overcast
10:21 PM 28.4 °F 13.8 °F 26.6 °F 93% 30.08 in 3.0 mi North 25.3 mph 40.3 mph 0.00 in Rain Light Freezing Rain
10:53 PM 27.0 °F 11.3 °F 25.0 °F 92% 30.11 in 4.0 mi North 27.6 mph 38.0 mph 0.00 in Rain Light Freezing Rain
11:53 PM 24.1 °F 6.6 °F 21.0 °F 88% 30.12 in 5.0 mi North 31.1 mph 38.0 mph 0.00 in Rain Light Freezing Rain